STARLINK-4118 (53538 NORAD) Tracking and Keplerian Element Data

This shows tracking and keplerian element data for the satellite.

Feedback or suggestion? Click here.




ElementValue
Catalog53538
NameSTARLINK-4118
Epoch Orbit1508
Epoch Day324.73371025
Epoch Year2022
RAAN73.3751
Inclination53.2162
Eccentricity0.0001561
Argument of Perigee59.364
Mean Anonmoly300.7506
Mean Motion15.08846915
Decay Rate-1.335E-05
L11 53538U 22101M 22324.73371025 -.00001335 00000+0 -65795-4 0 9990
L22 53538 53.2162 73.3751 0001561 59.3640 300.7506 15.08846915 15083



Live tracking and technical data element details for STARLINK-4118 (NORAD 53538). STARLINK-4118 can be tracked NOW for your location showing map with azimuth and elevation plus other details from your city location.







IsCatalogInMostPopularTable: catalog: 53538, numindb: 1
Update: records affected: 1



GetName: 53538 STARLINK-4118

Hit Count: updated at: Thu, 08 Dec 2022 09:34:48 GMT